Location: Skalnate Pleso
(49.1889°N, 20.2450°E)
Time: 02:43:41
(UTC+01:00)

STARLINK-80 - Pass Details

Date: 19 November 2019
Orbit: 492 x 497 km, 53.0° (Epoch: 10 December)

Event Time Altitude Azimuth Distance (km) Brightness Sun altitude
Exits shadow 05:48:29 16° 282° (WNW) 1,380 5.0 -10.7°
Maximum altitude 05:51:22 48° 353° (N) 660 3.8 -10.3°
Drops below altitude 10° 05:55:07 10° 69° (ENE) 1,703 6.9 -9.7°
Sets 05:57:21 0° 75° (ENE) 2,588 8.1 -9.4°
